Regional Weather Roundup
Issued by NWS Pendleton, OR

Home | Current Version | Previous Version | Text Only | Print | Product List | Glossary On
Versions: 1 2 3 4 5 6 7 8 9 10 11 12 13 14 15 16 17 18 19 20 21 22 23 24 25 26 27 28 29 30 31 32 33 34 35 36 37 38 39 40 41 42 43 44 45 46 47 48 49 50
000
ASUS46 KPDT 222025
RWRPDT
PENDLETON REGIONAL WEATHER ROUNDUP
NATIONAL WEATHER SERVICE PENDLETON OREGON
100 PM PDT MON SEP 22 2014

NOTE: FAIR INDICATES FEW OR NO CLOUDS BELOW 12,000 FEET WITH NO
SIGNIFICANT WEATHER AND/OR OBSTRUCTIONS TO VISIBILITY.

# INDICATES UNOFFICIAL STATION AND DATA

WAZ520-222110-
EAST SLOPES OF WASHINGTON CASCADES

CITY            SKY/WX      TMP DP  RH  WIND    PRES   REMARKS
#BUMPING DAM    N/A         70  N/A N/A S2      N/A
#CLE ELUM HS    N/A         71  51  49  W9      29.89F
#CLE ELUM 2NW   N/A         72  50  46  SW6     N/A
#CLE ELUM LAKE  N/A         71  49  46  CALM    29.79F
#CLIFFDEL 2NW   N/A         77  51  40  CALM    N/A
#GLENWOOD       N/A         77  48  36  SW6     29.86S
#MANASTASH CYN  N/A         72  54  53  N1      29.92F
#NELSON         N/A         71  56  59  NE2     29.86F
#NELSON 3SW     N/A         68  56  65  CALM    30.03F
#NILE           N/A         79  54  42  SW3     29.10F
#RONALD 2NW     N/A         71  53  53  W1      29.85F
#SNOWDEN        N/A          0  -78  1  CALM    N/A
#TEANAWAY 4NE   N/A         72  60  66  CALM    N/A
#TROUT LAKE 1NE N/A         74  45  35  N2      29.86F
$$

WAZ521-222110-
SIMCOE HIGHLANDS

CITY            SKY/WX      TMP DP  RH  WIND    PRES   REMARKS
#BICKLETON HS   N/A         75  36  24  W12     30.03S
#CENTERVILLE 4W N/A         77  50  39  NW9     29.70F
#CENTERVILLE 1SWN/A         77  50  39  NW13    29.82F
#GOLDENDALE     N/A         77  40  26  W10     N/A
#GOLDENDALE 1NE N/A         78  36  22  SW3     N/A
#GOLDENDALE 1S  N/A         79  49  35  W8      29.91F
#GOLDENDALE 5WNWN/A         79  46  31  W14     29.83F
#GOODNOE HILLS  N/A         80  51  36  W17     29.85F
$$

WAZ026-222110-
KITTITAS VALLEY

CITY            SKY/WX      TMP DP  RH  WIND    PRES   REMARKS
ELLENSBURG AP   MOCLDY      77  57  50  NW9     29.90F
#ELLENSBURG CWU N/A         76  56  50  NW7     29.78F
#ELLENSBURG 3NE N/A         73  59  62  NW5     29.90F
#ELLENSBURG     N/A         79  57  47  W6      N/A
#KITTITAS 3S    N/A         75  59  58  W5      29.82F
#THORP 6N       N/A         70  55  59  N8      29.83F
$$

WAZ027-222110-
YAKIMA VALLEY

CITY            SKY/WX      TMP DP  RH  WIND    PRES   REMARKS
SUNNYSIDE AP    N/A         77  55  47  CALM    29.88F
YAKIMA AIRPORT  MOCLDY      79  55  44  SE3     29.89F
YAKIMA-VAGABOND MOCLDY      79  53  41  SE5     29.90F
#COWICHE 1N     N/A         75  59  58  SE3     30.07F
#DONALD 2NE     N/A         87  54  32  N2      30.21F
#GRANDVIEW      N/A         78  54  43  CALM    29.86F
#MABTON         N/A         78  57  48  N1      29.87F
#MOXEE 2E       N/A         77  34  21  SE5     29.79F
#NACHES 2SW     N/A         76  61  60  SE2     29.93S
#OUTLOOK DOT    N/A         N/A N/A N/A E5      N/A
#SELAH 8E       N/A         82  52  35  N2      N/A
#TERRACE HTS    N/A         76  57  52  CALM    29.80F
#TOPPENISH      N/A         78  54  43  CALM    29.77F
#WAPATO 4NE     N/A         87  54  32  N2      30.21F
#W YAKIMA       N/A         78  56  47  E1      29.82F
#WHITE SWAN 5E  N/A         77  57  50  NE5     29.84F
#WILEY CITY 3W  N/A         78  54  43  N1      29.89F
$$

WAZ028-222110-
LOWER COLUMBIA BASIN...WASHINGTON

CITY            SKY/WX      TMP DP  RH  WIND    PRES   REMARKS
HANFORD         CLOUDY      80  48  33  N5      29.87S
PASCO           CLOUDY      80  54  41  SW14    29.87F
PROSSER AWOS    N/A         81  55  41  E3      29.90F
RICHLAND AWOS   PTCLDY      77  52  42  SW12    29.87F
#BASIN CITY 5SW N/A         75  60  60  S2      29.88S
#BENTON CITY    N/A         76  55  48  S3      29.76F
#CONNELL 5N     N/A         78  54  43  W7      29.84F
#CONNELL 5NW    N/A         76  60  58  SW3     29.81S
#ELTOPIA 6NW    N/A         73  57  57  S7      28.86F
#KENNEWICK 3S   N/A         74  54  50  N9      29.83F
#PASCO-BROADMOORN/A         78  54  43  SW10    29.75S
#PATERSON       N/A         79  54  42  SW8     29.84F
#PROSSER        N/A         80  51  36  S8      29.84F
#SAGEMOOR 2W    N/A         74  56  53  SE5     29.72S
#TOUCHET 2S     N/A         83  54  37  SW14    29.83F
#WEST PASCO     N/A         78  58  50  CALM    29.85F
$$

WAZ029-222110-
FOOTHILLS OF THE BLUES...WASHINGTON

CITY            SKY/WX      TMP DP  RH  WIND    PRES   REMARKS
WALLA WALLA AP  PTCLDY      84  49  30  SW15    29.92F
#DAYTON SCHOOL  N/A         83  46  27  SW5     29.91F
#LOWDEN 2SE     N/A         85  56  37  W7      29.85F
#PLEASANT VIEW 1N/A         84  48  29  SW16    29.86S
#PRESCOTT       N/A         84  52  33  SW6     29.84F
#SUDBURY        N/A         84  N/A N/A W8      N/A
#WHITMAN COLLEGEN/A         83  52  34  W9      29.90F
#WAITSBURG 8N   N/A         82  37  20  S10     29.85S
#WALLA WALLA 5E N/A         74  50  43  W7      N/A
#WALLA WALLA U  N/A         85  53  33  SW3     29.85F
#WHITMAN MISSIONN/A         85  56  37  W7      29.87F
$$

WAZ030-222110-
BLUE MOUNTAINS...WASHINGTON

CITY            SKY/WX      TMP DP  RH  WIND    PRES   REMARKS
$$

ORZ009-041-WAZ024-222110-
COLUMBIA RIVER GORGE

CITY            SKY/WX      TMP DP  RH  WIND    PRES   REMARKS
HOOD RIVER AP   MOCLDY      72  54  53  NW12    29.94F
THE DALLES AP   PTCLDY      80  53  39  N13     29.90F
#ARLINGTON AIRPON/A         80  50  35  W12     29.94S
#ARLINGTON HS   N/A         82  45  27  NW12    29.75F
#MARYHILL 2W    N/A         79  54  42  SW7     N/A
#MOSIER 1S      N/A         71  44  38  CALM    29.94F
#MURDOCK        N/A         75  56  52  NW13    29.90F
#RUFUS DOT      N/A         81  58  46  W12     N/A

$$

ORZ510-222110-
NORTH CENTRAL OREGON

CITY            SKY/WX      TMP DP  RH  WIND    PRES   REMARKS
#CHENOWITH 1W   N/A         69  52  55  NW18    N/A
#COW CYN RST AREN/A         77  44  31  SW8     N/A
#DUFUR 9E       N/A         69  52  55  NW5     29.91S
#GRASS VALLEY   N/A         80  46  30  CALM    N/A
#GRASS VALLEY 1SN/A         80  50  35  W7      29.87F
#KENT DOT       N/A         80  47  31  W7      N/A
#MAUPIN SCHOOL  N/A         84  52  33  S2      28.77F
#MORO SCHOOL    N/A         74  58  57  NW7     29.96F
#SHANIKO 5WSW   N/A         75  44  33  S14     N/A
#SHANIKO 4NW    N/A         77  42  29  SW5     30.03S
#TYGH VALLEY 2NEN/A         84  52  33  CALM    29.83F
#WAPANITIA AIRPON/A         83  50  32  SE1     29.84F
#WASCO DOT      N/A         80  55  42  W8      N/A
#WASCO 5NE      N/A         78  52  40  W8      29.86F
$$

ORZ511-222110-
CENTRAL OREGON

CITY            SKY/WX      TMP DP  RH  WIND    PRES   REMARKS
BEND AIRPORT    PTCLDY      79  41  26  SW13    30.01F
MADRAS AIRPORT  SUNNY       81  43  26  CALM    29.99F
REDMOND AIRPORT PTCLDY      80  44  28  VRB3    29.99F
#BEND 6E        N/A         78  38  24  CALM    29.75F
#BEND 1SW       N/A         79  47  32  W3      N/A
#BEND-AWBREY    N/A         79  49  35  N7      29.81F
#BEND-KIM LN    N/A         79  50  36  SW5     29.99F
#CROOKED RVR RANN/A         82  51  34  S3      29.82F
#CULVER         N/A         81  47  30  S2      29.93F
#LAKE BILLY CHINN/A         81  -1   4  N5      29.98F
#POWELL BUTTE 3EN/A         76  52  43  NW3     N/A
#POWELL BUTTE   N/A         82  48  31  NW8     29.65F
#PRINEVILLE 3N  N/A         77  51  40  CALM    29.79F
#WARM SPRINGS   N/A         86  52  31  CALM    29.89F


ORZ509-222110-
EAST SLOPES OF OREGON CASCADES

CITY            SKY/WX      TMP DP  RH  WIND    PRES   REMARKS
#BLUE BOX PASS  N/A         69  14  12  CALM    N/A
#CAMP SHERMAN   N/A         80  44  28  N3      29.82S
#LA PINE DOT    N/A         77  33  20  W3      N/A
#LA PINE 4NW    N/A         74  47  38  CALM    29.90F
#LAVA BUTTE DOT N/A         75  39  27  SE2     N/A
#SISTERS AIRPOR N/A         78  56  47  N5      29.91S
#SISTERS ODOT   N/A         77  N/A N/A E2      N/A
#SISTERS 3N     N/A         78  50  38  E3      N/A
#SUNRIVER       N/A         74  48  40  S2      29.74F
#SUNRIVER AP    N/A         72  48  43  S3      29.82F
#SUTTLE LK DOT  N/A         69  49  49  E1      N/A
#TUMALO 3W      N/A         75  49  40  NE3     29.71F
#WANOGA BUTTE D N/A         66  41  40  SW6     N/A

$$

ORZ044-222110-
LOWER COLUMBIA BASIN...OREGON

CITY            SKY/WX      TMP DP  RH  WIND    PRES   REMARKS
HERMISTON       CLOUDY      78  53  42  SW3     29.89F
#BOARDMAN SCHOOLN/A         82  49  32  W6      29.85F
#BOARDMAN 3W    N/A         83  55  38  SW8     29.56F
#BOARDMAN 8SW   N/A         81  55  41  SW9     29.85F
#ECHO 8SW       N/A         79  53  41  SW5     29.87F
#IONE SCHOOL    N/A         80  51  36  W6      29.90F
#IRRIGON 4NW    N/A         81  52  37  S12     N/A
#UMATILLA SCHOOLN/A         79  62  56  CALM    29.93F
#UMATILLA       N/A         79  54  42  CALM    29.85F
$$

ORZ507-222110-
NORTHERN FOOTHILLS OF THE BLUES

CITY            SKY/WX      TMP DP  RH  WIND    PRES   REMARKS
PENDLETON AIRPT MOCLDY      80  46  30  NW14    29.92F
#ADAMS 3WNW     N/A         81  50  34  W12     29.86F
#ATHENA         N/A         81  51  35  W5      29.89F
#HELIX SCHOOL   N/A         80  50  35  W5      29.87F
#HELIX 3N       N/A         78  47  34  SW14    29.92F
#HELIX 6SW      N/A         77  49  37  W14     29.92F
#HOLDMAN 5SE    N/A         78  49  36  W7      29.93F
#HOLDMAN 6E     N/A         77  49  37  NE8     29.69S
#M-F GROVE ELEM N/A         84  45  26  W7      29.90F
#M-FREEWATER 5SEN/A         84  55  37  W2      29.91F
#PENDLETON DNTN N/A         83  47  28  CALM    29.91F
#PDT AQUATIC CTRN/A         82  51  34  W7      29.91S
#PENDLETON 5NE  N/A         82  52  35  W2      29.88F
#PDT SUNRIDGE   N/A         82  50  33  NW6     29.92F
#PENDLETON 7NW  N/A         79  54  42  W10     26.23R
#PILOT ROCK     N/A         81  49  33  N6      29.96F
#TUTUILLA       N/A         82  52  35  W7      29.89F
#UMAPINE 2E     N/A         86  54  34  SW2     29.86F
#WESTON SCHOOL  N/A         80  45  29  N1      29.91F

$$

ORZ508-222110-
SOUTHERN FOOTHILLS OF THE BLUES

CITY            SKY/WX      TMP DP  RH  WIND    PRES   REMARKS
LEXINGTON       CLOUDY      79  52  39  E3      29.94F
#AJAX           N/A         79  42  27  W7      29.90F
#CONDON SCHOOL  N/A         75  49  40  CALM    29.95F
#CONDON 5W      N/A         75  45  34  S5      29.99F
#HEPPNER EOC    N/A         78  51  39  W1      29.81F
#HEPPNER 4NE    N/A         75  50  41  W3      29.85F
#LEXINGTON 2SE  N/A         79  55  44  CALM    29.91F
#MIKKALO        N/A         78  47  34  NW7     29.94F
#OLEX 4N        N/A         78  52  40  W7      29.91F
#RUGGS 5NE      N/A         82  50  33  SW3     30.17S
#RUGGS 2SW      N/A         78  48  35  W3      29.86F

$$

ORZ502-503-222110-
BLUE MOUNTAINS

CITY            SKY/WX      TMP DP  RH  WIND    PRES   REMARKS
MEACHAM         SUNNY       80  45  29  VRB3    30.03F
#BATTLE MTN DOT N/A         74  55  51  N2      N/A
#HARDMAN 10S    N/A         69  50  51  SE2     30.11F
#HEPPNER 15SE   N/A         62  57  84  E2      29.98F
#LADD CYN SMT   N/A         73  52  48  SE15    N/A
#LADD CREEK ODOTN/A         76  58  54  S6      N/A
#N POWDER DOT   N/A         77  58  52  SW7     N/A
#PIKES PEAK     N/A         72  46  39  SW16G24 27.99S
#TOLLGATE       N/A         70  48  46  W2      30.03S
#TROY SCHOOL    N/A         77  56  48  CALM    29.72F
#UKIAH          N/A         82  49  32  NW5     29.89F
#WESTON 4E      N/A         78  47  34  SW5     29.79F
$$

ORZ505-222110-
JOHN DAY BASIN

CITY            SKY/WX      TMP DP  RH  WIND    PRES   REMARKS
JOHN DAY        PTCLDY      81  46  29  W9      30.01F
#JOHN DAY KJDY  N/A         84  48  29  SW1     30.13S
#MONUMENT HS    N/A         80  46  30  NW1     29.96F
#MT. VERNON 5SE N/A         77  46  33  W7      29.99F
#WINLOCK        N/A         82  50  33  NW2     30.08F
$$

ORZ506-222110-
OCHOCO AND JOHN DAY HIGHLANDS

CITY            SKY/WX      TMP DP  RH  WIND    PRES   REMARKS
#BUCK CREEK DOT N/A         79  53  41  CALM    N/A
#HORSE RIDGE DO N/A         78  40  26  E2      N/A
#KEYES SMT DOT  N/A         74  44  34  E2      N/A
#PAULINA SCHOOL N/A         80  44  28  E3      30.03F
#PINE MTN OBS   N/A         67  42  40  S12     N/A
#PRAIRIE CITY   N/A         85  44  24  W1      29.76F
#SENECA 9NW     N/A         78  43  29  SE2     29.85F
$$

ORZ049-222110-
GRANDE RONDE VALLEY

CITY            SKY/WX      TMP DP  RH  WIND    PRES   REMARKS
LA GRANDE       PTCLDY      81  48  32  S16     29.99F
#COVE           N/A         76  58  54  SW7     29.93F
#COVE SCHOOL    N/A         75  55  50  W1      29.99F
#COVE 6NW       N/A         75  55  50  S3      29.90F
#ELGIN 3N       N/A         79  50  36  S8      29.72F
#ELGIN 1E       N/A         78  55  45  W3      N/A
#IMBLER SCHOOL  N/A         75  56  52  SE9     29.95F
#LADD CYN DOT   N/A         76  57  52  SE14    N/A
#LA GRANDE ELEM N/A         78  54  43  E5      29.97F
#UNION 1S       N/A         75  55  50  S7      29.77F
$$

ORZ050-222110-
WALLOWA COUNTY

CITY            SKY/WX      TMP DP  RH  WIND    PRES   REMARKS
JOSEPH AIRPORT  PTCLDY      70  48  46  CALM    30.09S
#ENTERPRISE AP  N/A         69  46  44  W1      30.01S
#ENTERPRISE HS  N/A         69  52  55  CALM    30.06F
#IMNAHA SCHOOL  N/A         83  47  28  S3      29.85F
#IMNAHA 10S     N/A         79  51  38  S3      29.99F
#JOSEPH 3N      N/A         67  52  59  CALM    30.09S
#JOSEPH 3W      N/A         66  53  63  CALM    29.95R
#LOSTINE        N/A         70  51  51  CALM    29.70F
#MT HOWARD 8000 N/A         61  42  50  CALM    30.32S
#PROMISE 1S     N/A         71  54  55  N2      29.96F
#SHEEP RDG 7000 N/A         59  40  49  CALM    29.84R
#WALLOWA SCHOOL N/A         70  54  57  CALM    30.78F



$$



USA.gov is the U.S. government's official web portal to all federal, state and local government web resources and services.